Hourly Weather Bolshie Galashki

Today, 16 June, Wednesday

Time Temperature Precipitation Wind Pressure Humidity
00:00 +16°C° 0 mm 1 mps 727 mmHg 95%
01:00 +16°C° 0 mm 1 mps 727 mmHg 97%
02:00 +16°C° 0 mm 1 mps 727 mmHg 97%
03:00 +15°C° 0 mm 1 mps 727 mmHg 96%
04:00 +15°C° 0 mm 1 mps 727 mmHg 96%
05:00 +18°C° 0 mm 1 mps 727 mmHg 90%
06:00 +20°C° 0 mm 1 mps 727 mmHg 84%
07:00 +21°C° 0 mm 1 mps 727 mmHg 79%
08:00 +23°C° 0 mm 2 mps 727 mmHg 67%
09:00 +25°C° 0 mm 2 mps 727 mmHg 55%
10:00 +27°C° 0 mm 2 mps 727 mmHg 44%
11:00 +28°C° 0 mm 2 mps 727 mmHg 40%
12:00 +29°C° 0 mm 2 mps 727 mmHg 36%
13:00 +30°C° 0 mm 3 mps 726 mmHg 32%
14:00 +30°C° 0 mm 2 mps 726 mmHg 32%
15:00 +30°C° 0 mm 2 mps 725 mmHg 33%
16:00 +30°C° 0 mm 2 mps 725 mmHg 34%
17:00 +26°C° 0.3 mm 2 mps 724 mmHg 50%
18:00 +21°C° 0.3 mm 2 mps 724 mmHg 65%
19:00 +17°C° 0.3 mm 2 mps 724 mmHg 81%
20:00 +17°C° 0 mm 2 mps 723 mmHg 83%
21:00 +16°C° 0 mm 2 mps 723 mmHg 86%
22:00 +15°C° 0 mm 2 mps 722 mmHg 88%
23:00 +16°C° 0 mm 2 mps 722 mmHg 88%

Tomorrow, 17 June, Thursday

Time Temperature Precipitation Wind Pressure Humidity
00:00 +16°C° 0 mm 3 mps 721 mmHg 87%
01:00 +16°C° 0 mm 3 mps 721 mmHg 86%
02:00 +16°C° 0.2 mm 3 mps 721 mmHg 89%
03:00 +16°C° 0.2 mm 3 mps 720 mmHg 91%
04:00 +14°C° 0.2 mm 3 mps 720 mmHg 94%
05:00 +16°C° 0.2 mm 3 mps 720 mmHg 93%
06:00 +17°C° 0.2 mm 3 mps 720 mmHg 92%
07:00 +18°C° 0.2 mm 4 mps 720 mmHg 91%
08:00 +18°C° 0.4 mm 3 mps 720 mmHg 92%
09:00 +17°C° 0.4 mm 3 mps 720 mmHg 93%
10:00 +17°C° 0.4 mm 2 mps 720 mmHg 93%
11:00 +19°C° 0.1 mm 3 mps 721 mmHg 81%
12:00 +20°C° 0.1 mm 4 mps 721 mmHg 68%
13:00 +21°C° 0.1 mm 4 mps 721 mmHg 55%
14:00 +21°C° 0 mm 5 mps 721 mmHg 49%
15:00 +22°C° 0 mm 5 mps 721 mmHg 43%
16:00 +22°C° 0 mm 6 mps 722 mmHg 36%
17:00 +21°C° 0 mm 6 mps 722 mmHg 40%
18:00 +19°C° 0 mm 5 mps 723 mmHg 43%
19:00 +17°C° 0 mm 5 mps 723 mmHg 47%
20:00 +15°C° 0 mm 4 mps 724 mmHg 52%
21:00 +13°C° 0 mm 4 mps 724 mmHg 56%
22:00 +12°C° 0 mm 3 mps 725 mmHg 61%
23:00 +10°C° 0 mm 3 mps 725 mmHg 68%

Day after tomorrow, 18 June, Friday

Time Temperature Precipitation Wind Pressure Humidity
00:00 +8°C° 0 mm 2 mps 725 mmHg 74%
01:00 +8°C° 0 mm 1 mps 726 mmHg 81%
02:00 +8°C° 0 mm 1 mps 726 mmHg 80%
03:00 +8°C° 0 mm 1 mps 726 mmHg 79%
04:00 +7°C° 0 mm 1 mps 727 mmHg 79%
05:00 +8°C° 0 mm 2 mps 727 mmHg 70%
06:00 +10°C° 0 mm 2 mps 728 mmHg 61%
07:00 +12°C° 0 mm 3 mps 728 mmHg 52%
08:00 +13°C° 0 mm 3 mps 728 mmHg 48%
09:00 +14°C° 0 mm 3 mps 729 mmHg 43%
10:00 +16°C° 0 mm 3 mps 729 mmHg 39%
11:00 +17°C° 0 mm 3 mps 729 mmHg 36%
12:00 +18°C° 0 mm 3 mps 729 mmHg 32%
13:00 +19°C° 0 mm 3 mps 729 mmHg 29%
14:00 +19°C° 0 mm 3 mps 729 mmHg 29%
15:00 +19°C° 0 mm 3 mps 729 mmHg 30%
16:00 +19°C° 0 mm 3 mps 729 mmHg 30%
17:00 +18°C° 0 mm 3 mps 730 mmHg 35%
18:00 +17°C° 0 mm 3 mps 730 mmHg 40%
19:00 +17°C° 0 mm 3 mps 730 mmHg 45%
20:00 +14°C° 0 mm 3 mps 730 mmHg 54%
21:00 +13°C° 0 mm 2 mps 730 mmHg 64%
22:00 +10°C° 0 mm 2 mps 731 mmHg 73%
23:00 +9°C° 0 mm 2 mps 731 mmHg 76%

19 June, Saturday

Time Temperature Precipitation Wind Pressure Humidity
00:00 +9°C° 0 mm 1 mps 731 mmHg 80%
01:00 +9°C° 0 mm 1 mps 731 mmHg 83%
02:00 +9°C° 0 mm 1 mps 731 mmHg 82%
03:00 +9°C° 0 mm 1 mps 731 mmHg 81%
04:00 +9°C° 0 mm 1 mps 731 mmHg 79%
05:00 +10°C° 0 mm 1 mps 731 mmHg 75%
06:00 +12°C° 0 mm 2 mps 731 mmHg 70%
07:00 +13°C° 0 mm 2 mps 731 mmHg 65%
08:00 +13°C° 0 mm 3 mps 731 mmHg 62%
09:00 +14°C° 0 mm 3 mps 730 mmHg 60%
10:00 +15°C° 0 mm 4 mps 730 mmHg 57%
11:00 +17°C° 0.1 mm 4 mps 729 mmHg 60%
12:00 +16°C° 0.1 mm 5 mps 729 mmHg 63%
13:00 +17°C° 0.1 mm 5 mps 728 mmHg 66%
14:00 +17°C° 0.3 mm 4 mps 727 mmHg 72%
15:00 +17°C° 0.3 mm 4 mps 727 mmHg 79%
16:00 +17°C° 0.3 mm 3 mps 726 mmHg 86%
17:00 +17°C° 0.8 mm 3 mps 726 mmHg 88%
18:00 +17°C° 0.8 mm 2 mps 725 mmHg 91%
19:00 +17°C° 0.8 mm 2 mps 725 mmHg 94%
20:00 +17°C° 0.2 mm 3 mps 724 mmHg 93%
21:00 +18°C° 0.2 mm 4 mps 724 mmHg 92%
22:00 +18°C° 0.2 mm 4 mps 724 mmHg 91%
23:00 +17°C° 0.2 mm 4 mps 724 mmHg 92%

20 June, Sunday

Time Temperature Precipitation Wind Pressure Humidity
00:00 +16°C° 0.2 mm 5 mps 724 mmHg 93%
01:00 +16°C° 0.2 mm 5 mps 724 mmHg 94%
02:00 +15°C° 0 mm 5 mps 724 mmHg 93%
03:00 +14°C° 0 mm 5 mps 724 mmHg 92%
04:00 +14°C° 0 mm 6 mps 724 mmHg 91%
05:00 +13°C° 0 mm 6 mps 725 mmHg 80%
06:00 +13°C° 0 mm 6 mps 726 mmHg 70%
07:00 +11°C° 0 mm 6 mps 726 mmHg 59%
08:00 +14°C° 0 mm 6 mps 726 mmHg 50%
09:00 +15°C° 0 mm 7 mps 727 mmHg 42%
10:00 +16°C° 0 mm 7 mps 727 mmHg 33%
11:00 +17°C° 0 mm 7 mps 727 mmHg 31%
12:00 +18°C° 0 mm 7 mps 727 mmHg 29%
13:00 +18°C° 0 mm 7 mps 728 mmHg 27%
14:00 +18°C° 0 mm 7 mps 728 mmHg 28%
15:00 +18°C° 0 mm 7 mps 728 mmHg 29%
16:00 +20°C° 0 mm 6 mps 728 mmHg 30%
17:00 +17°C° 0 mm 6 mps 729 mmHg 34%
18:00 +16°C° 0 mm 6 mps 729 mmHg 38%
19:00 +15°C° 0 mm 5 mps 729 mmHg 41%
20:00 +14°C° 0 mm 4 mps 729 mmHg 46%
21:00 +12°C° 0 mm 3 mps 729 mmHg 51%
22:00 +12°C° 0 mm 2 mps 729 mmHg 55%
23:00 +9°C° 0 mm 2 mps 730 mmHg 61%

21 June, Monday

Time Temperature Precipitation Wind Pressure Humidity
00:00 +8°C° 0 mm 2 mps 730 mmHg 67%
01:00 +8°C° 0 mm 1 mps 730 mmHg 73%
02:00 +8°C° 0 mm 1 mps 730 mmHg 72%
03:00 +9°C° 0 mm 1 mps 730 mmHg 71%
04:00 +9°C° 0 mm 1 mps 730 mmHg 70%
05:00 +10°C° 0 mm 1 mps 730 mmHg 67%
06:00 +12°C° 0 mm 1 mps 730 mmHg 63%
07:00 +13°C° 0 mm 1 mps 730 mmHg 59%
08:00 +13°C° 0 mm 1 mps 730 mmHg 57%
09:00 +14°C° 0 mm 2 mps 730 mmHg 56%
10:00 +14°C° 0 mm 2 mps 730 mmHg 55%
11:00 +15°C° 0 mm 2 mps 730 mmHg 54%
12:00 +16°C° 0 mm 2 mps 730 mmHg 52%
13:00 +16°C° 0 mm 2 mps 730 mmHg 51%
14:00 +17°C° 0 mm 2 mps 729 mmHg 50%
15:00 +18°C° 0 mm 2 mps 729 mmHg 48%
16:00 +19°C° 0 mm 2 mps 729 mmHg 46%
17:00 +18°C° 0 mm 2 mps 729 mmHg 51%
18:00 +19°C° 0 mm 1 mps 728 mmHg 55%
19:00 +19°C° 0 mm 1 mps 728 mmHg 60%
20:00 +16°C° 0 mm 1 mps 728 mmHg 65%
21:00 +14°C° 0 mm 1 mps 727 mmHg 71%
22:00 +12°C° 0 mm 1 mps 727 mmHg 76%
23:00 +12°C° 0 mm 1 mps 726 mmHg 75%
Show more